Location: New Frontier Mobile Home Park
(32.8448°N, 116.9675°W)
Time: 22:42:43
(UTC+00:00)

Cosmos 2082 Rocket - Pass Details

Date: 14 July 2020
Orbit: 833 x 853 km, 71.0° (Epoch: 05 August)

Event Time Altitude Azimuth Distance (km) Brightness Sun altitude
Exits shadow 09:10:02 32° 84° (E) 1,421 3.5 -32.6°
Drops below altitude 10° 09:14:13 10° 41° (NE) 2,484 5.4 -32.3°
Sets 09:16:52 0° 32° (NNE) 3,422 6.5 -32.1°
